QFA675 YMML-YPAD

Flight info

Callsign QFA675
Flight time N/A
Altitude 38000
Route PEDNI1/27 PEDNI H345 AD
Aircraft B738/M-SDE2E3FGHIRWXY/LB1

Departure

Time N/A
Airport Melbourne Airport (YMML)

Arrival

Time 2025-09-09 10:03
Airport Adelaide International Airport (YPAD)
Time Latitude Longitude Altitude Speed Heading
2025-09-09 09:00 -37.27686 143.51078 31854 ft 367 kts 291°
2025-09-09 09:01 -37.25740 143.45243 32541 ft 368 kts 291°
2025-09-09 09:03 -37.17849 143.21333 34854 ft 374 kts 290°
2025-09-09 09:05 -37.10369 142.96681 36666 ft 383 kts 290°
2025-09-09 09:07 -37.02567 142.71402 37995 ft 396 kts 290°
2025-09-09 09:09 -36.94740 142.46266 38000 ft 383 kts 290°
2025-09-09 09:11 -36.86941 142.21437 38004 ft 386 kts 290°
2025-09-09 09:13 -36.79167 141.96900 38003 ft 390 kts 291°
2025-09-09 09:14 -36.72152 141.74935 37995 ft 389 kts 291°
2025-09-09 09:17 -36.63135 141.46944 38008 ft 385 kts 291°
2025-09-09 09:19 -36.55115 141.22270 38009 ft 383 kts 291°
2025-09-09 09:21 -36.47085 140.97769 38008 ft 381 kts 291°
2025-09-09 09:23 -36.38920 140.73546 38004 ft 379 kts 296°
2025-09-09 09:25 -36.25862 140.52984 38013 ft 379 kts 305°
2025-09-09 09:26 -36.14476 140.35085 38019 ft 377 kts 305°
2025-09-09 09:29 -36.00001 140.12499 33463 ft 359 kts 306°
2025-09-09 09:31 -35.88290 139.94353 29705 ft 322 kts 306°
2025-09-09 09:33 -35.77398 139.77540 26118 ft 329 kts 307°
2025-09-09 09:33 -35.73141 139.71000 24726 ft 322 kts 307°
2025-09-09 09:34 -35.70366 139.66743 23851 ft 319 kts 307°
2025-09-09 09:35 -35.66223 139.60397 22425 ft 315 kts 307°
2025-09-09 09:35 -35.63493 139.56221 21568 ft 310 kts 307°
2025-09-09 09:35 -35.62246 139.54316 21173 ft 308 kts 307°
2025-09-09 09:36 -35.56954 139.46236 19520 ft 302 kts 307°
2025-09-09 09:37 -35.54319 139.42220 18715 ft 299 kts 307°
2025-09-09 09:37 -35.53015 139.40233 18301 ft 299 kts 307°
2025-09-09 09:38 -35.50414 139.36277 17470 ft 295 kts 307°
2025-09-09 09:38 -35.47857 139.32389 16686 ft 291 kts 307°
2025-09-09 09:39 -35.45323 139.28542 15892 ft 288 kts 307°
2025-09-09 09:39 -35.42811 139.24747 15102 ft 287 kts 309°
2025-09-09 09:40 -35.37268 139.21567 14296 ft 308 kts 336°
2025-09-09 09:40 -35.35910 139.21002 14142 ft 311 kts 335°
2025-09-09 09:41 -35.29342 139.17702 13075 ft 305 kts 333°
2025-09-09 09:41 -35.28025 139.17053 13059 ft 307 kts 333°
2025-09-09 09:42 -35.23567 139.14942 12970 ft 279 kts 334°
2025-09-09 09:42 -35.20593 139.13558 12470 ft 274 kts 334°
2025-09-09 09:43 -35.16337 139.11580 11315 ft 289 kts 335°
2025-09-09 09:43 -35.12644 139.09881 11032 ft 270 kts 335°
2025-09-09 09:44 -35.08120 139.07796 10026 ft 255 kts 334°
2025-09-09 09:44 -35.06532 139.06857 9463 ft 250 kts 317°
2025-09-09 09:45 -35.04189 139.03850 8819 ft 247 kts 319°
2025-09-09 09:45 -35.01677 139.01432 8813 ft 208 kts 316°
2025-09-09 09:46 -34.99585 138.99069 8250 ft 207 kts 313°
2025-09-09 09:46 -34.97355 138.96509 7076 ft 239 kts 314°
2025-09-09 09:46 -34.96146 138.95148 6875 ft 235 kts 314°
2025-09-09 09:47 -34.92515 138.91079 6066 ft 236 kts 314°
2025-09-09 09:47 -34.91325 138.89750 5812 ft 228 kts 314°
2025-09-09 09:48 -34.87978 138.86015 5179 ft 204 kts 313°
2025-09-09 09:49 -34.85991 138.83798 5158 ft 193 kts 313°
2025-09-09 09:49 -34.83969 138.81539 5155 ft 199 kts 313°
2025-09-09 09:49 -34.82956 138.80411 5169 ft 197 kts 313°
2025-09-09 09:50 -34.80960 138.78185 5160 ft 192 kts 311°
2025-09-09 09:50 -34.80205 138.75217 5193 ft 193 kts 278°
2025-09-09 09:51 -34.78422 138.72946 5196 ft 204 kts 336°
2025-09-09 09:52 -34.74335 138.71322 5153 ft 206 kts 336°
2025-09-09 09:52 -34.71476 138.71614 5159 ft 226 kts 32°
2025-09-09 09:53 -34.69536 138.74689 5165 ft 235 kts 52°
2025-09-09 09:53 -34.68111 138.78240 5128 ft 237 kts 91°
2025-09-09 09:54 -34.69804 138.80876 5146 ft 192 kts 184°
2025-09-09 09:54 -34.73265 138.79152 4682 ft 180 kts 214°
2025-09-09 09:55 -34.75454 138.77741 4093 ft 174 kts 214°
2025-09-09 09:56 -34.78593 138.75421 3820 ft 176 kts 228°
2025-09-09 09:56 -34.80285 138.73376 3804 ft 169 kts 228°
2025-09-09 09:57 -34.81943 138.71416 3800 ft 160 kts 228°
2025-09-09 09:57 -34.83545 138.69493 3193 ft 161 kts 229°
2025-09-09 09:58 -34.84982 138.67486 2746 ft 149 kts 231°
2025-09-09 09:58 -34.86271 138.65618 2377 ft 142 kts 231°
2025-09-09 09:59 -34.87550 138.63762 1950 ft 142 kts 231°
2025-09-09 09:59 -34.88804 138.61941 1565 ft 140 kts 230°
2025-09-09 10:00 -34.90678 138.59220 1038 ft 143 kts 228°
2025-09-09 10:00 -34.91981 138.57332 705 ft 147 kts 226°
2025-09-09 10:01 -34.93304 138.55424 287 ft 142 kts 227°
2025-09-09 10:01 -34.93946 138.54505 115 ft 146 kts 229°
2025-09-09 10:02 -34.95103 138.52817 21 ft 95 kts 230°
2025-09-09 10:02 -34.95128 138.52461 21 ft 0 kts 339°
2025-09-09 10:04 -34.95108 138.52453 21 ft 8 kts 343°
2025-09-09 10:04 -34.94913 138.52563 21 ft 22 kts 38°
2025-09-09 10:05 -34.94653 138.52808 25 ft 24 kts 38°
2025-09-09 10:05 -34.94520 138.52928 28 ft 24 kts 36°
2025-09-09 10:06 -34.94517 138.53266 22 ft 24 kts 94°
2025-09-09 10:06 -34.94327 138.53602 21 ft 23 kts 50°
2025-09-09 10:07 -34.94183 138.53604 25 ft 8 kts 322°
2025-09-09 10:07 -34.94126 138.53546 24 ft 3 kts 317°
2025-09-09 10:08 -34.94125 138.53545 24 ft 0 kts 317°